Temp
-6 -6 -5 -4 -4 -4 -4 -4 -4 -3 -2 -1 -1 -1 -1 -0 -1 0 0 1 2 2 3 3 3 4 4 4 4 4 3 3 5 5 5 5 5 5 5 5 6 6 6 6 6
-6 -6 -6 -4 -4 -4 -4 -4 -4 -3 -3 -2 -2 -2 -1 -1 -1 -1 -0 1 1 2 2 2 3 3 3 3 3 3 4 4 5 5 5 5 5 5 5 5 6 6 6 5 5
-6 -6 -6 -5 -4 -4 -4 -4 -4 -4 -3 -3 -2 -1 -1 -1 -2 -1 -1 -0 1 1 1 2 2 2 3 3 3 3 3 4 4 5 5 5 5 5 5 5 6 5 5 6 6
-6 -6 -6 -6 -5 -5 -5 -4 -4 -4 -3 -4 -3 -2 -2 -2 -2 -2 -1 -1 -0 0 1 1 2 2 2 2 3 2 3 3 4 4 4 4 5 5 5 6 5 5 6 6 6
-6 -6 -6 -6 -6 -5 -5 -5 -5 -4 -4 -3 -3 -3 -2 -2 -2 -2 -2 -1 -1 -0 0 1 1 1 1 2 2 2 2 3 3 3 4 4 5 5 6 5 5 6 6 6 6
-6 -5 -6 -6 -6 -6 -5 -5 -4 -5 -4 -3 -4 -3 -3 -3 -2 -2 -2 -1 -1 -1 -0 0 0 1 1 1 2 2 2 2 2 3 3 4 4 5 5 5 5 5 5 6 6
-6 -6 -5 -6 -6 -7 -6 -5 -5 -5 -4 -4 -5 -4 -4 -3 -3 -3 -2 -2 -2 -1 -0 -0 0 0 1 1 1 1 1 2 2 2 3 3 4 4 4 5 5 5 5 4 5
-6 -6 -7 -7 -7 -6 -5 -5 -5 -5 -4 -4 -5 -6 -4 -4 -3 -3 -3 -3 -2 -1 -1 -0 -0 0 0 1 1 1 1 1 2 2 2 2 2 3 4 4 4 4 4 4 4
-6 -7 -7 -8 -7 -6 -5 -5 -5 -5 -4 -5 -5 -5 -4 -4 -4 -3 -3 -3 -2 -1 -1 -1 -0 0 0 0 0 1 -0 1 1 2 1 1 2 3 3 3 3 4 4 4 4
-7 -7 -7 -6 -6 -6 -5 -5 -5 -5 -4 -5 -5 -4 -5 -4 -4 -4 -4 -4 -3 -1 -1 -1 -1 -0 -0 0 1 -1 0 1 1 0 1 1 3 3 3 3 3 3 3 4 5
-6 -6 -6 -5 -5 -5 -4 -5 -5 -4 -4 -5 -5 -5 -4 -4 -4 -4 -4 -3 -3 -2 -1 -1 -0 -1 -0 -0 -0 -0 0 -0 0 -0 1 2 2 2 2 2 2 3 3 3 3
-6 -5 -5 -6 -5 -5 -5 -4 -4 -5 -6 -6 -5 -5 -5 -4 -4 -4 -4 -3 -3 -2 -2 -1 -1 -1 -1 -1 -1 -1 -1 -2 0 -1 -1 1 2 2 2 1 1 1 1 1 2
-4 -4 -4 -5 -5 -5 -5 -5 -5 -5 -6 -6 -5 -5 -5 -4 -4 -4 -4 -3 -3 -3 -2 -1 -1 -1 -1 -1 -1 -2 -2 -2 -2 -1 -2 -1 1 1 0 0 -0 -1 -0 0 1
-4 -4 -4 -4 -4 -5 -5 -5 -5 -4 -5 -6 -6 -5 -5 -5 -5 -5 -4 -4 -3 -3 -2 -2 -2 -2 -2 -2 -2 -3 -2 -3 -3 -4 -3 -4 -2 -2 0 -0 -1 -0 -1 -1 -1
-3 -4 -5 -5 -4 -4 -4 -4 -4 -3 -4 -6 -6 -5 -5 -5 -5 -4 -4 -4 -3 -3 -3 -3 -3 -2 -2 -3 -3 -4 -3 -3 -4 -5 -5 -4 -4 -1 -1 -0 -1 -1 -2 -2 -2
-2 -3 -3 -3 -3 -3 -3 -3 -3 -3 -6 -6 -7 -6 -6 -5 -5 -4 -4 -4 -3 -3 -3 -3 -2 -2 -3 -3 -3 -3 -3 -3 -4 -4 -4 -2 -3 -1 -3 -3 -2 -2 -2 -2 -2
-2 -2 -3 -3 -3 -2 -2 -2 -3 -6 -7 -6 -6 -5 -4 -4 -4 -4 -4 -4 -4 -3 -3 -3 -3 -3 -3 -3 -3 -3 -4 -2 -2 -3 0 -3 -4 -3 -4 -3 -4 -3 -3 -3 -3
-0 -1 -1 -1 -2 -2 -2 -2 -6 -8 -6 -5 -5 -5 -4 -4 -4 -4 -4 -4 -4 -4 -3 -4 -3 -3 -3 -3 -4 -4 -4 -3 -2 0 0 -3 -2 -3 -4 -4 -4 -3 -3 -4 -3
0 0 0 -1 -1 -2 -1 -3 -5 -5 -5 -5 -4 -4 -4 -4 -4 -4 -4 -4 -4 -4 -5 -4 -3 -3 -3 -3 -4 -3 -4 -3 -4 -3 -3 -1 -3 -3 -4 -4 -4 -3 -4 -3 -3
-0 1 -0 -0 0 -0 0 -4 -5 -4 -4 -4 -4 -4 -5 -4 -4 -4 -4 -4 -5 -4 -4 -4 -4 -3 -3 -3 -3 -3 -3 -3 -3 -1 -0 0 -3 -4 -4 -4 -4 -3 -3 -3 -3
1 1 -0 -1 -1 0 -1 -4 -4 -4 -4 -4 -4 -4 -4 -4 -5 -4 -4 -4 -4 -4 -4 -4 -4 -3 -3 -2 -3 -3 -3 -4 -4 -3 -0 0 -2 -3 -3 -3 -3 -3 -3 -3 -3
2 1 0 -0 -0 -0 -2 -3 -3 -4 -4 -4 -3 -3 -4 -4 -4 -4 -3 -3 -3 -3 -4 -3 -4 -4 -2 -2 -3 -3 -3 -4 -3 -2 -3 -2 -1 -2 -2 -2 -2 -3 -3 -3 -3
2 2 1 -0 -0 -0 -1 -2 -2 -3 -3 -3 -3 -3 -3 -3 -3 -3 -3 -3 -3 -3 -3 -3 -3 -4 -2 -2 -2 -2 -2 -3 -4 -4 -3 -0 -1 -2 -2 -2 -2 -3 -3 -3 -2
3 2 1 1 0 -0 -1 -1 -1 -2 -2 -2 -3 -3 -2 -2 -2 -2 -2 -2 -2 -2 -3 -3 -3 -2 -1 -1 -2 -2 -2 -2 -3 -3 -1 -1 -1 -1 -1 -1 -2 -2 -2 -2 -2
3 2 2 2 1 1 0 -0 -0 -1 -1 -1 -1 -1 -1 -1 -2 -2 -2 -2 -2 -2 -2 -3 -2 -2 -1 -1 -1 -1 -1 -2 -2 -1 -2 -1 -1 -1 -1 -1 -2 -2 -2 -3 -2
3 3 2 2 2 1 1 0 0 0 0 0 -0 -1 -1 -1 -1 -1 -1 -1 -2 -2 -2 -3 -2 -2 0 1 -0 0 1 -0 -1 -0 -0 -1 -0 -0 -0 -1 -1 -1 -1 -2 -2
3 2 2 2 2 1 1 1 1 0 0 0 0 0 0 -0 -0 -0 -0 -1 -1 -1 -2 -2 -2 -3 -2 -0 -0 0 4 3 1 1 1 1 2 1 1 0 -1 -1 -1 -1 -1
Height
3009 3005 3005 3005 3009 3017 3022 3024 3028 3032 3039 3045 3051 3058 3062 3068 3073 3076 3081 3087 3090 3093 3096 3097 3100 3103 3106 3109 3112 3114 3118 3119 3120 3121 3120 3123 3124 3125 3126 3127 3128 3130 3132 3133 3133
3005 3003 3001 2999 3003 3009 3016 3021 3024 3028 3034 3042 3046 3053 3058 3062 3068 3072 3078 3082 3086 3090 3094 3097 3099 3102 3104 3107 3109 3111 3115 3116 3118 3120 3120 3120 3121 3122 3124 3123 3126 3127 3128 3128 3128
3006 3001 2998 2999 2998 3003 3011 3017 3021 3026 3030 3037 3044 3049 3055 3058 3064 3068 3073 3079 3083 3087 3092 3095 3098 3100 3103 3105 3108 3110 3112 3113 3115 3118 3118 3118 3117 3118 3119 3120 3124 3121 3122 3123 3124
3006 3002 2998 2998 2999 3001 3007 3014 3018 3024 3027 3032 3038 3044 3048 3053 3061 3065 3070 3075 3080 3085 3089 3092 3096 3099 3101 3103 3106 3109 3110 3111 3113 3114 3116 3115 3115 3115 3112 3120 3115 3116 3117 3118 3118
3009 3003 3000 2998 2999 3001 3005 3012 3018 3023 3026 3029 3035 3042 3048 3053 3058 3061 3068 3074 3078 3083 3087 3090 3094 3097 3099 3102 3104 3106 3108 3109 3109 3110 3112 3112 3113 3109 3111 3112 3110 3111 3111 3112 3111
3010 3004 3000 3001 3000 3003 3007 3010 3016 3023 3025 3028 3033 3040 3046 3052 3056 3062 3068 3073 3077 3082 3085 3089 3093 3096 3098 3101 3102 3104 3105 3106 3106 3106 3107 3108 3109 3104 3111 3106 3107 3105 3104 3104 3104
3011 3006 3000 2999 3002 3006 3010 3013 3019 3023 3026 3029 3031 3040 3043 3051 3055 3061 3065 3071 3074 3079 3083 3088 3091 3094 3096 3099 3099 3101 3103 3103 3103 3103 3102 3103 3102 3101 3102 3102 3101 3099 3098 3097 3098
3014 3007 3002 3000 3003 3008 3013 3017 3021 3025 3028 3030 3035 3039 3044 3051 3056 3060 3064 3070 3075 3079 3082 3086 3089 3092 3095 3097 3098 3100 3101 3101 3101 3100 3098 3099 3096 3098 3097 3096 3094 3093 3091 3091 3090
3018 3012 3006 3004 3009 3012 3015 3019 3025 3029 3031 3035 3038 3041 3047 3051 3056 3061 3065 3072 3076 3079 3083 3086 3088 3091 3093 3095 3098 3098 3099 3098 3098 3097 3094 3094 3089 3093 3092 3089 3086 3086 3085 3083 3082
3022 3018 3012 3011 3016 3019 3020 3025 3029 3032 3035 3039 3041 3046 3050 3053 3056 3064 3067 3072 3077 3080 3082 3085 3087 3089 3091 3093 3096 3095 3096 3095 3095 3094 3091 3088 3083 3084 3086 3082 3080 3078 3076 3074 3072
3026 3024 3020 3019 3021 3023 3026 3028 3034 3036 3038 3041 3047 3049 3051 3057 3059 3064 3070 3073 3077 3080 3082 3083 3086 3088 3089 3090 3091 3092 3093 3092 3092 3090 3085 3083 3078 3079 3079 3076 3073 3070 3067 3064 3061
3031 3028 3027 3027 3028 3029 3030 3031 3033 3038 3039 3045 3050 3054 3057 3060 3063 3068 3073 3076 3078 3079 3082 3085 3085 3087 3088 3088 3090 3090 3090 3090 3088 3086 3082 3078 3072 3072 3070 3069 3066 3062 3059 3056 3054
3042 3036 3035 3035 3036 3035 3038 3037 3038 3042 3044 3053 3056 3058 3062 3066 3068 3070 3074 3076 3079 3081 3082 3083 3084 3084 3085 3087 3088 3088 3089 3088 3088 3084 3082 3077 3068 3067 3066 3064 3062 3058 3054 3050 3046
3052 3049 3045 3043 3047 3046 3048 3048 3048 3048 3051 3063 3063 3065 3067 3068 3072 3073 3076 3079 3080 3082 3082 3083 3083 3084 3085 3087 3088 3089 3088 3087 3085 3085 3084 3081 3071 3065 3062 3062 3058 3054 3049 3044 3039
3060 3058 3055 3052 3052 3051 3053 3051 3051 3052 3056 3072 3069 3070 3070 3072 3076 3077 3078 3079 3080 3081 3084 3084 3083 3084 3085 3087 3088 3090 3087 3085 3083 3083 3082 3078 3077 3062 3059 3057 3053 3049 3045 3040 3034
3064 3062 3059 3057 3055 3055 3053 3053 3053 3056 3067 3074 3074 3074 3075 3075 3077 3079 3080 3082 3082 3082 3082 3083 3083 3084 3085 3087 3087 3087 3085 3083 3081 3081 3079 3073 3075 3062 3058 3055 3050 3045 3041 3035 3028
3065 3062 3060 3058 3057 3055 3055 3056 3057 3062 3075 3078 3077 3076 3077 3078 3080 3081 3081 3081 3082 3083 3082 3082 3083 3084 3086 3087 3086 3086 3085 3084 3081 3081 3074 3072 3072 3063 3058 3053 3047 3042 3036 3029 3021
3070 3067 3063 3059 3058 3057 3055 3058 3060 3072 3073 3077 3078 3079 3080 3080 3082 3082 3082 3082 3082 3082 3083 3084 3087 3085 3085 3086 3086 3086 3087 3087 3081 3074 3072 3071 3066 3060 3056 3049 3045 3040 3034 3025 3018
3076 3074 3069 3067 3065 3064 3064 3057 3071 3077 3079 3080 3081 3082 3082 3083 3084 3083 3083 3084 3084 3084 3086 3085 3085 3085 3084 3084 3086 3084 3084 3085 3083 3077 3073 3065 3063 3059 3054 3049 3044 3038 3033 3026 3019
3083 3079 3076 3076 3074 3073 3067 3068 3076 3079 3081 3083 3083 3084 3085 3085 3086 3085 3086 3086 3085 3085 3086 3087 3086 3084 3084 3084 3083 3082 3082 3082 3079 3072 3064 3060 3061 3058 3053 3050 3045 3039 3033 3028 3022
3088 3083 3081 3080 3081 3079 3073 3079 3082 3083 3083 3084 3085 3086 3086 3086 3086 3086 3087 3087 3085 3086 3086 3085 3086 3086 3084 3081 3080 3080 3078 3077 3076 3072 3066 3060 3060 3057 3054 3050 3045 3040 3034 3030 3025
3091 3089 3087 3086 3087 3081 3083 3084 3086 3087 3087 3087 3088 3088 3087 3087 3087 3087 3087 3086 3086 3085 3085 3086 3085 3082 3081 3078 3077 3076 3074 3073 3072 3070 3068 3066 3060 3056 3054 3050 3045 3041 3037 3033 3029
3094 3092 3091 3090 3090 3087 3087 3089 3089 3090 3090 3089 3089 3089 3089 3089 3090 3088 3088 3087 3086 3085 3086 3085 3083 3080 3077 3077 3075 3072 3071 3070 3069 3069 3065 3063 3057 3055 3053 3050 3047 3043 3039 3036 3033
3096 3095 3095 3094 3092 3092 3091 3091 3090 3090 3091 3091 3091 3091 3090 3090 3090 3089 3089 3088 3087 3086 3085 3083 3080 3078 3076 3072 3072 3069 3068 3067 3066 3066 3061 3057 3054 3053 3053 3051 3049 3045 3042 3039 3035
3096 3096 3096 3095 3095 3094 3094 3093 3092 3093 3093 3093 3092 3092 3091 3091 3090 3090 3088 3087 3086 3084 3082 3081 3078 3076 3073 3070 3067 3065 3064 3063 3060 3060 3059 3055 3052 3052 3052 3051 3049 3046 3044 3041 3038
3097 3096 3095 3095 3095 3095 3095 3095 3095 3094 3093 3093 3093 3093 3092 3091 3090 3089 3088 3086 3084 3083 3081 3080 3077 3073 3068 3066 3064 3060 3059 3058 3057 3055 3053 3053 3051 3051 3051 3050 3048 3047 3045 3043 3041
3095 3094 3094 3094 3093 3093 3094 3094 3094 3094 3094 3092 3091 3091 3090 3090 3088 3087 3085 3084 3082 3081 3080 3078 3076 3074 3067 3065 3062 3056 3051 3051 3052 3051 3051 3049 3050 3049 3049 3047 3046 3045 3044 3043 3041
Wind_Speed
25 22 25 20 21 24 20 16 11 26 31 35 30 31 18 23 21 21 22 21 19 18 16 16 17 17 17 17 17 17 15 10 13 11 14 11 12 14 15 17 19 19 19 19 20
24 15 12 12 13 19 23 21 14 17 32 38 24 30 24 23 25 23 22 20 20 19 18 17 17 17 17 17 18 19 18 16 15 14 14 14 15 17 18 19 16 18 18 20 23
22 21 9 14 8 15 18 15 16 16 20 39 39 35 30 21 20 22 22 19 18 18 18 18 18 17 17 17 18 18 19 17 15 15 16 17 19 20 22 22 18 22 23 23 23
21 18 18 9 11 8 21 17 15 12 12 32 40 29 19 12 20 22 21 21 17 17 17 18 17 17 17 18 18 17 16 17 17 17 19 21 22 23 28 19 25 26 27 27 27
22 18 13 9 3 10 16 22 15 13 12 16 42 34 35 25 19 26 22 18 18 17 16 16 16 16 17 17 18 17 17 16 16 17 19 22 21 28 25 24 28 27 28 29 30
25 20 15 4 4 10 13 13 20 14 8 9 33 39 33 25 19 21 14 18 18 18 17 16 16 16 15 16 15 12 14 16 16 18 20 22 23 30 22 28 26 29 29 30 31
26 25 14 3 5 7 6 8 16 10 7 7 18 28 28 19 16 17 23 25 20 18 14 15 15 14 14 12 14 13 13 14 16 18 21 22 26 27 24 24 25 26 28 29 29
29 26 20 12 15 15 11 6 10 8 6 7 16 26 16 22 17 10 19 20 17 14 13 11 11 12 12 11 9 9 11 11 14 15 20 19 22 22 24 27 29 30 31 31 32
24 25 21 23 18 15 14 12 7 7 7 8 9 20 16 16 21 18 22 15 14 12 11 11 11 11 10 9 8 8 7 11 13 15 20 22 26 22 22 28 34 33 35 36 37
24 21 23 29 22 18 18 13 12 10 8 11 19 18 19 22 18 20 21 17 10 10 11 9 9 8 8 8 4 5 7 11 12 14 20 26 32 31 26 30 32 34 35 37 39
28 21 21 26 24 20 17 16 16 13 9 9 14 15 18 21 21 19 14 12 13 13 11 9 7 7 7 7 8 8 9 11 12 18 24 26 32 29 25 26 26 30 33 36 38
28 25 21 23 23 19 16 10 14 18 21 18 14 18 18 18 13 20 19 15 13 10 10 9 8 7 6 5 5 7 8 11 13 12 23 26 33 30 21 13 21 24 26 30 31
33 33 28 26 23 21 15 22 30 25 36 22 18 17 18 16 16 14 14 13 11 9 9 8 7 7 4 3 6 7 8 8 11 18 19 21 23 7 12 12 15 19 26 29 33
34 35 39 40 31 29 29 32 32 28 23 17 18 17 14 16 14 15 14 13 10 9 8 5 6 5 3 4 5 4 6 9 13 13 6 12 10 11 7 13 17 24 24 23 26
22 21 17 14 18 16 13 13 10 7 6 7 16 16 12 11 17 13 12 10 8 8 5 4 3 1 1 2 4 4 10 15 16 15 17 9 9 7 17 19 22 16 19 25 26
15 13 12 13 17 12 9 10 10 8 8 8 13 12 13 12 11 12 10 8 6 5 3 1 1 2 3 5 7 10 11 12 7 4 5 8 9 5 12 23 24 22 18 28 30
24 19 11 9 8 9 6 7 9 11 7 9 12 15 16 15 12 10 9 7 5 3 3 1 2 3 4 6 7 6 8 4 2 3 4 5 8 13 18 25 23 25 24 26 28
29 27 26 17 10 8 10 13 16 9 14 15 14 13 14 13 10 8 8 7 6 6 4 3 1 1 2 4 2 5 4 3 4 3 7 7 5 7 18 23 18 16 19 23 21
27 29 31 26 28 23 26 33 13 14 17 15 13 10 10 10 7 6 7 6 5 5 3 2 2 3 3 3 4 3 5 7 7 10 6 3 5 9 17 10 11 14 15 11 28
21 25 27 24 20 20 34 29 18 18 13 10 7 8 5 5 5 3 3 2 3 5 4 2 3 2 2 4 4 6 10 5 5 3 4 2 1 11 11 16 21 27 32 29 22
17 21 20 21 17 21 33 27 20 15 12 10 10 7 6 5 4 5 4 5 5 4 2 2 2 3 5 5 3 2 5 6 5 5 3 4 0 6 9 15 20 24 28 29 33
16 17 15 13 14 25 23 20 17 15 15 13 11 11 9 9 8 5 5 4 4 3 2 3 5 7 6 8 7 8 6 4 4 2 5 4 5 7 7 10 17 23 24 23 25
13 14 14 9 15 20 19 18 17 12 9 9 7 8 7 5 4 3 2 4 4 2 2 3 3 5 2 2 4 8 8 8 8 9 9 4 3 9 7 10 8 8 12 12 15
9 6 10 10 12 14 14 13 13 11 12 11 9 8 7 7 4 2 1 1 0 1 3 5 6 6 4 7 10 10 10 10 11 6 5 11 9 14 8 6 5 8 10 11 12
5 6 7 7 8 9 9 8 8 8 6 5 6 4 3 2 2 2 2 3 4 4 6 7 7 10 12 14 16 14 12 12 13 16 7 9 11 11 9 5 3 3 6 8 10
3 0 2 3 5 4 4 4 4 4 4 4 2 1 2 2 2 3 4 4 5 6 8 9 8 16 19 10 11 18 15 15 14 15 18 15 14 13 12 9 6 2 2 6 7
4 4 3 2 3 3 2 1 1 1 3 3 2 3 5 4 6 9 11 11 12 12 11 10 8 13 7 6 17 20 12 17 13 14 12 16 8 12 12 10 8 7 4 2 4
Wind_Direction
316 293 279 259 220 225 230 197 202 205 200 188 191 206 226 222 217 210 212 214 210 204 200 194 194 194 196 201 208 212 217 227 230 236 244 243 246 247 246 249 252 254 254 249 241
348 325 318 204 227 219 216 223 219 209 202 200 204 197 194 203 198 200 204 206 207 205 204 201 200 199 201 203 207 212 219 231 232 239 249 252 255 259 263 260 264 268 264 255 246
3 357 309 269 151 174 201 206 221 210 205 198 208 210 194 194 181 193 199 204 201 202 206 207 208 206 208 212 217 222 225 236 244 247 251 255 258 263 264 266 277 267 263 264 261
2 359 9 262 275 186 169 178 180 170 190 198 210 198 199 183 191 200 201 204 199 200 205 207 210 210 212 218 226 234 236 242 251 253 256 260 264 267 265 278 270 268 268 269 269
6 356 355 8 73 162 160 189 171 180 190 191 203 205 202 199 189 174 190 192 198 203 203 206 210 213 218 229 233 240 246 249 253 256 257 261 267 270 272 275 273 276 274 271 266
9 7 352 339 64 144 167 123 131 170 171 185 199 207 202 189 209 193 186 198 196 199 203 206 213 217 222 231 233 242 244 251 257 262 267 269 271 271 284 276 279 276 275 272 270
15 16 11 38 135 106 113 136 130 157 146 144 181 186 197 189 158 170 207 208 191 193 200 210 213 215 221 231 239 245 254 260 264 272 276 280 274 277 276 280 276 274 275 275 274
22 17 32 58 123 120 128 152 117 128 128 162 179 189 184 196 192 160 136 150 167 176 176 186 196 206 215 227 240 250 264 266 271 276 277 280 272 281 281 281 280 278 278 278 277
27 36 56 80 102 98 125 150 139 121 123 152 160 174 142 191 207 172 142 149 149 150 161 174 187 203 213 226 250 253 257 266 283 281 282 281 279 289 286 288 282 283 282 280 276
33 42 69 79 91 91 114 127 128 107 105 136 127 119 132 179 209 193 153 156 177 179 173 171 180 198 207 216 227 229 259 277 281 282 282 282 288 291 295 286 289 287 281 277 273
47 59 79 90 98 102 105 127 126 122 106 128 140 134 143 144 129 140 156 164 185 186 189 188 197 198 212 224 240 258 271 279 290 295 290 290 289 298 301 290 282 274 273 271 271
44 61 77 96 92 97 106 119 136 128 106 120 135 143 152 154 147 150 151 152 161 164 168 169 177 191 205 224 249 269 291 304 306 296 300 303 298 303 294 269 277 285 283 273 270
61 71 82 101 84 96 116 105 107 111 102 108 128 142 146 152 151 144 152 152 153 158 161 164 164 177 197 247 279 303 310 305 305 304 311 313 305 303 307 292 300 295 298 293 283
60 70 90 86 80 77 82 88 95 94 82 79 98 110 123 125 129 141 145 147 149 152 152 153 179 210 239 287 305 320 302 305 306 321 307 327 293 320 321 307 306 299 300 303 293
48 48 60 53 32 38 53 76 96 85 78 54 88 117 116 113 128 135 141 139 140 145 143 151 168 192 314 274 288 279 309 308 300 288 297 289 244 290 304 315 327 307 315 313 313
47 34 14 7 16 25 42 69 79 84 59 74 95 98 112 126 125 124 116 120 116 106 102 166 236 235 260 283 298 294 308 304 291 293 267 256 216 281 327 325 317 311 302 314 305
45 38 20 359 10 31 41 92 78 58 99 103 102 107 111 111 109 106 102 92 97 90 59 101 225 233 275 287 300 308 344 313 276 225 273 196 241 266 301 318 319 308 311 304 289
47 47 45 41 66 62 105 113 69 91 110 115 106 101 102 104 98 102 95 78 63 73 55 41 168 251 281 287 272 272 264 291 292 275 309 263 247 297 323 330 321 324 321 323 327
54 57 56 61 74 88 106 91 102 98 106 105 94 82 79 80 93 84 75 70 65 51 51 39 291 255 262 267 276 246 232 254 259 269 259 241 295 321 336 348 41 46 31 12 11
48 59 62 59 70 102 96 92 98 100 102 100 89 93 93 78 78 81 64 68 57 33 33 16 295 232 273 298 290 255 263 242 226 275 290 224 343 324 85 81 70 64 60 53 38
49 58 66 70 78 85 87 88 89 89 88 81 82 87 105 86 95 68 70 51 97 104 104 309 292 289 276 217 275 274 242 231 247 248 294 310 338 129 98 83 69 61 54 50 43
50 58 67 78 78 73 83 87 88 92 94 93 84 83 84 85 72 87 85 103 63 61 34 326 263 270 235 266 277 279 271 258 249 187 247 271 265 178 118 94 76 70 55 47 40
51 60 65 71 76 77 83 85 83 86 84 85 90 91 88 98 102 99 105 74 62 50 346 321 266 291 267 298 267 287 288 292 258 270 247 258 246 189 148 124 97 75 84 70 52
54 77 69 61 69 76 81 85 91 87 86 83 85 83 81 73 75 66 71 62 267 295 307 308 276 263 268 280 281 281 294 292 251 234 273 249 249 204 207 146 105 79 62 62 54
45 71 79 75 64 73 77 88 91 93 86 86 81 81 67 59 53 15 321 277 278 308 319 303 283 283 294 285 276 278 283 282 270 235 248 303 256 210 202 185 189 110 76 62 54
328 54 115 92 92 83 78 77 87 93 109 104 83 65 23 15 356 319 318 302 261 281 297 298 288 310 312 278 271 282 276 272 268 246 248 271 238 221 221 224 225 233 33 45 56
352 295 265 236 186 166 188 214 188 282 220 222 247 290 299 287 294 299 295 285 276 278 286 290 293 317 283 287 300 285 262 243 250 249 263 255 264 237 243 251 253 259 280 2 26